BEIDOU-2 G7

Last updated on Mon Jun 22 2026 00:03:05 GMT+0000 (Coordinated Universal Time)

1 41586U 16037A 26172.55447016 -.00000355 00000+0 00000+0 0 9993 2 41586 1.7320 69.3648 0006521 358.2440 152.2640 1.00274439 6933
UTC large
Height (km)
Speed (km/s)
/
Latitude / Longitude
Inclination (degrees)
Orbital Period (minutes)
Azimuth
Elevation
Range (km)
Doppler Factor

Next 0 passes for location: London (51.5072 / 0.1276)

No passes found over London.
BEIDOU-2 G7